This is the latest recevied weather packets stored in our database for station/object W1LBM. If no packets are shown the sender has not sent any weather packets the latest 10 day(s).
| Time | Temp. | Humidity | Pressure | Rain* | Wind** | Luminosity | Snow |
|---|---|---|---|---|---|---|---|
| 1777054513 | 13.89° C | 31% | 1012.3 hPa | 0 mm | - | 644 W/m² | - |
| 1777054210 | 13.33° C | 38% | 1012.2 hPa | 0 mm | - | 648 W/m² | - |
| 1777053908 | 13.33° C | 35% | 1012.2 hPa | 0 mm | - | 653 W/m² | - |
| 1777053604 | 13.89° C | 35% | 1012.1 hPa | 0 mm | - | 554 W/m² | - |
| 1777053303 | 13.33° C | 35% | 1012.4 hPa | 0 mm | - | 669 W/m² | - |
| 1777052999 | 13.33° C | 31% | 1012.3 hPa | 0 mm | - | 667 W/m² | - |
| 1777052695 | 13.33° C | 32% | 1012.4 hPa | 0 mm | - | 672 W/m² | - |
| 1777052395 | 12.22° C | 35% | 1012.3 hPa | 0 mm | - | 676 W/m² | - |
| 1777052092 | 12.78° C | 32% | 1012.5 hPa | 0 mm | - | 684 W/m² | - |
| 1777051789 | 13.33° C | 33% | 1012.3 hPa | 0 mm | - | 685 W/m² | - |
| 1777051485 | 12.78° C | 35% | 1012.5 hPa | 0 mm | - | 688 W/m² | - |
| 1777051181 | 12.22° C | 33% | 1012.6 hPa | 0 mm | - | 692 W/m² | - |
| 1777050877 | 12.22° C | 35% | 1012.7 hPa | 0 mm | - | 696 W/m² | - |
| 1777050573 | 12.22° C | 35% | 1012.5 hPa | 0 mm | - | 696 W/m² | - |
| 1777050272 | 11.67° C | 41% | 1012.5 hPa | 0 mm | - | 698 W/m² | - |
| 1777049968 | 12.22° C | 38% | 1012.6 hPa | 0 mm | - | 697 W/m² | - |
| 1777049667 | 12.22° C | 34% | 1012.7 hPa | 0 mm | - | 700 W/m² | - |
| 1777049366 | 12.78° C | 32% | 1012.5 hPa | 0 mm | - | 697 W/m² | - |
| 1777049062 | 12.22° C | 34% | 1012.6 hPa | 0 mm | - | 701 W/m² | - |
| 1777048758 | 11.67° C | 34% | 1012.9 hPa | 0 mm | - | 701 W/m² | - |
| 1777048458 | 11.67° C | 34% | 1012.9 hPa | 0 mm | - | 698 W/m² | - |
| 1777048158 | 11.67° C | 32% | 1012.8 hPa | 0 mm | - | 708 W/m² | - |
| 1777047854 | 11.67° C | 32% | 1012.8 hPa | 0 mm | - | 701 W/m² | - |
| 1777047550 | 11.67° C | 34% | 1013 hPa | 0 mm | - | 701 W/m² | - |
| 1777047245 | 11.67° C | 42% | 1012.9 hPa | 0 mm | - | 697 W/m² | - |
* Rain latest hour (hover to see other rain measurements)
** Current wind speed in m/s (hover to see current wind gust speed)